Tracking 29892 objects as of 21-Nov-2024
HD Live streaming from Space Station
objects crossing your sky now

ARIANE 5 R/B

Track ARIANE 5 R/B now!


NORAD ID: 36583
Int'l Code: 2010-021C
Perigee: 276.9 km
Apogee: 32,359.2 km
Inclination: 2.7 °
Period: 566.9 minutes
Semi major axis: 22689 km
RCS: 23.765 m2 (large)
Launch date: May 21, 2010
Source: France (FR)
Launch site: FRENCH GUIANA (FRGUI)

Note: This is a ROCKET BODY
Your satellite tracking list
Your tracking list is empty




NASA's NSSDC Master Catalog

Two Line Element Set (TLE):
1 36583U 10021C   24325.58742789  .00003086  00000-0  11499-2 0  9998
2 36583   2.6779 197.5421 7070012 186.3753 154.3068  2.54026104127659
Source of the keplerian elements: AFSPC